Location: Laverne
(36.7100°N, 99.8930°W)
Time: 15:36:17
(UTC-05:00)

Daily predictions for brighter satellites

Satellite Brightness Start Highest point End
(mag) Time Altitude Azimuth Time Altitude Azimuth Time Altitude Azimuth
ATLAS 2A CENTAUR R/B 4.3 20:51:33 10° WSW 20:58:09 51° SSE 21:23:11 10° E
NOSS 3-4 (A) 4.3 21:18:49 10° NNW 21:25:38 49° NE 21:32:52 10° SE
NOSS 3-4 (C) 4.4 21:18:55 10° NNW 21:25:44 48° NE 21:32:57 10° SE
Tiangong 1 1.5 21:27:46 10° W 21:30:32 56° NNW 21:33:17 10° ENE
Cosmos 1707 4.0 21:27:15 10° SSW 21:31:00 47° W 21:34:48 10° N
Aureole 2 Rocket 2.7 21:33:50 10° NNW 21:37:56 84° ENE 21:41:45 10° SSE
Cosmos 2219 Rocket 2.8 21:32:29 10° NNW 21:38:04 59° WSW 21:43:35 10° S
Cosmos 2333 Rocket 2.5 21:34:42 10° NNW 21:40:21 71° WSW 21:45:56 10° SSE
Cosmos 2221 3.7 21:41:24 10° NNE 21:45:08 26° ENE 21:48:41 11° SE
Meteor 1-29 3.1 21:43:01 10° NNE 21:46:22 52° E 21:49:44 10° S
Envisat 3.1 21:44:08 10° S 21:49:12 83° WSW 21:54:19 10° NNW
USA 186 3.1 21:47:33 10° SSW 21:49:38 26° W 21:51:40 10° NW
SL-8 R/B 3.9 21:48:49 10° WNW 21:53:34 67° SW 21:57:47 13° SE
SAR-Lupe-1 4.4 21:52:53 11° SSE 21:56:09 48° ENE 21:59:38 10° N
Cosmos 1140 Rocket 3.7 21:55:18 10° SSW 22:00:27 76° WNW 22:05:38 10° NNE
Cosmos 1242 Rocket 4.1 21:57:38 10° NNE 22:00:34 22° ENE 22:02:30 15° ESE
USA 32 4.0 21:56:10 10° S 22:01:22 74° E 22:06:37 10° N
Resurs 01 Rocket 3.9 22:02:11 10° SSW 22:05:42 23° W 22:09:13 10° NW
Milstar 3 Cent rocket 3.8 22:00:32 10° WSW 22:07:08 47° S 22:18:44 13° ESE
Cosmos 1939 Rocket 3.3 22:04:04 10° S 22:07:58 60° W 22:11:59 10° NNW
Cosmos 2297 Rocket 3.2 22:03:39 10° SW 22:09:08 51° WNW 22:14:39 10° NNE
Cosmos 1867 3.5 22:10:21 10° SSW 22:15:42 65° ESE 22:21:07 10° NE
Cosmos 1340 Rocket 3.4 22:14:51 10° SSW 22:18:47 60° W 22:22:49 10° N
MetOp-B 4.4 22:17:13 17° SE 22:21:09 54° ENE 22:26:22 10° N
Cosmos 2263 Rocket 4.0 22:21:44 12° E 22:21:44 12° E 22:23:44 10° ENE
Cosmos 1459 Rocket 4.1 22:18:55 10° N 22:25:07 58° E 22:29:36 19° SSE
Cosmos 2100 Rocket 4.1 22:19:01 10° N 22:25:17 63° E 22:30:08 18° SSE
Cosmos 2061 Rocket 4.3 22:20:01 10° N 22:26:16 54° E 22:30:42 20° SSE
YAOGAN 6 3.5 22:25:26 12° S 22:28:40 47° W 22:32:13 10° NNW
CZ-4B DEB 4.2 22:26:54 11° SSW 22:29:25 32° W 22:32:08 10° NNW
ATLAS 5 CENTAUR R/B 2.3 22:25:02 10° SW 22:29:35 62° NW 22:34:31 10° NNE
Cosmos 2084 3.5 22:26:48 10° SW 22:30:51 71° NW 22:34:42 10° NNE
SPOT 5 3.3 22:28:20 23° SE 22:31:02 47° ENE 22:35:49 10° N
OAO 1 Rocket 4.5 22:26:53 10° WSW 22:32:11 62° SSE 22:36:51 13° E
Cosmos 1850 Rocket 4.3 22:27:17 10° SSW 22:32:25 68° WNW 22:37:36 10° NNE
Cosmos 1726 3.5 22:29:48 10° NNE 22:32:48 23° ENE 22:33:27 22° E
Helios 1B rocket 4.5 22:30:45 10° N 22:34:21 29° WNW 22:37:56 10° SW
Lacrosse 5 3.6 22:30:26 10° NNW 22:34:33 24° NE 22:38:08 12° E
Cosmos 2173 Rocket 3.9 22:32:13 10° N 22:38:23 73° E 22:42:44 21° SSE
Cosmos 2237 Rocket 3.7 22:35:14 10° NW 22:40:05 30° WSW 22:44:55 10° SSW
H-2A R/B 2.6 22:41:25 26° SE 22:44:00 45° ENE 22:49:08 10° N
ERS-1 Rocket 3.3 22:41:43 17° S 22:45:29 64° WSW 22:50:30 10° NNW
USA 234 3.3 22:40:03 10° NE 22:46:37 84° NW 22:53:09 10° SW
Cosmos 1603 4.4 22:41:27 10° N 22:46:44 39° ENE 22:49:18 25° ESE
Atlas Centaur 2 2.4 22:46:45 10° WSW 22:49:18 23° SSW 22:49:18 23° SSW
Cosmos 1674 3.4 22:47:30 13° SSW 22:50:44 51° W 22:54:24 10° N
Cosmos 1908 3.6 22:49:34 10° NNW 22:53:25 61° W 22:55:15 28° SSW
Cosmos 1818 3.6 22:48:51 10° NNW 22:54:18 81° WSW 22:56:55 32° SSE
Cosmos 1802 Rocket 3.9 22:51:05 10° N 22:57:15 89° E 23:00:59 26° S
Cosmos 220 Rocket 4.3 22:57:30 40° SE 22:58:18 45° ESE 23:02:31 10° NNE
Cosmos 1725 Rocket 4.2 22:53:49 10° N 22:59:55 53° E 23:02:34 32° SE
Sakura Rocket 4.3 22:52:54 10° WSW 22:59:56 40° S 23:01:39 33° SE
Landsat 7 4.3 22:59:49 34° ESE 23:01:13 44° ENE 23:05:44 10° N
KORONAS-FOTON 4.2 22:59:18 23° SSW 23:01:27 59° W 23:05:12 10° N
Cosmos 1408 Rocket 3.7 23:00:38 24° SSW 23:03:09 71° W 23:07:28 10° N
SL-16 R/B 2.9 22:58:21 10° NNW 23:03:47 49° WSW 23:07:03 23° S
Cosmos 1943 4.5 22:59:04 10° N 23:03:51 27° ENE 23:05:59 22° E
ARGOS 3.3 23:01:49 27° S 23:04:50 73° WSW 23:10:16 10° NNW
Tiangong 1 3.2 23:04:09 10° WNW 23:06:27 22° N 23:07:54 15° NE
Cosmos 2058 3.9 23:15:03 32° E 23:15:03 32° E 23:18:27 10° NNE
Terra 2.3 23:15:15 39° ESE 23:16:09 43° ENE 23:20:40 10° N
DMSP B5D2-2 3.9 23:13:56 10° NNE 23:19:10 75° ESE 23:21:02 41° S
Cosmos 1500 Rocket 3.5 23:22:19 59° SE 23:22:45 63° E 23:27:10 10° NNE
Cosmos 1864 Rocket 4.4 23:17:14 10° N 23:23:38 83° E 23:26:10 39° SSE
Meteor 1-11 4.3 23:22:53 43° SSE 23:24:34 61° E 23:30:18 10° NNE
ERBS 4.3 23:25:08 10° NNW 23:27:48 21° NE 23:27:57 21° NE
Cosmos 2016 Rocket 4.3 23:22:50 10° NNW 23:28:59 61° W 23:32:11 29° SSW
Cosmos 2151 3.0 23:30:35 63° E 23:30:35 63° E 23:34:48 10° NNE
Cosmos 332 Rocket 3.7 23:27:28 10° NNW 23:32:24 90° NNW 23:33:15 62° SSE
CARTOSAT-1 3.5 23:32:40 65° E 23:32:54 67° ENE 23:37:11 10° N
RESURS DK-1 2.2 23:31:00 10° NNW 23:35:11 86° WSW 23:35:16 85° SSW
Cosmos 1814 Rocket 3.9 23:32:01 10° NNW 23:37:23 85° ENE 23:38:24 59° SSE
SPOT 1/Viking Rocket 4.1 23:37:14 36° SSW 23:38:55 50° W 23:43:55 10° NNW
Cosmos 1486 Rocket 3.9 23:37:19 44° SSW 23:39:03 86° WNW 23:44:23 10° NNE
Meteor 1-27 4.3 23:35:53 10° N 23:41:41 67° E 23:42:49 54° SE
Cosmos 1328 Rocket 4.2 23:45:16 10° NNW 23:49:26 47° W 23:49:54 44° WSW
Cosmos 841 Rocket 3.4 23:45:35 10° NNW 23:50:50 67° ENE 23:51:19 63° ESE
Cosmos 2228 Rocket 3.7 23:46:54 10° NNW 23:51:22 51° W 23:51:58 47° WSW
Cosmos 1515 Rocket 3.7 23:48:49 10° NNW 23:53:06 62° W 23:53:11 61° WSW
Cosmos 1763 Rocket 3.2 23:49:06 10° NNW 23:54:13 87° WSW 23:54:37 76° S
H-2A R/B 2.0 23:54:28 82° N 23:54:28 82° N 23:58:35 10° NNW
